When you browse on this site, cookies collect data to enhance your experience and personalize the content and advertising you see.
Visit our Privacy Policy to learn more. By continuing to use the site, you agree to this use of cookies and data.

Tiempo cada hora Llaillay

Hoy, 15 Agosto, Sábado

Tiempo Temperatura Precipitaciones Viento Presión Humedad
00:00 +8°C° 0 mm 1 mps 729 mmHg 93%
01:00 +7°C° 0 mm 1 mps 729 mmHg 92%
02:00 +7°C° 0 mm 1 mps 729 mmHg 92%
03:00 +7°C° 0 mm 1 mps 729 mmHg 93%
04:00 +7°C° 0 mm 1 mps 729 mmHg 93%
05:00 +7°C° 0 mm 1 mps 729 mmHg 92%
06:00 +7°C° 0 mm 1 mps 729 mmHg 91%
07:00 +8°C° 0 mm 1 mps 729 mmHg 89%
08:00 +11°C° 0 mm 1 mps 729 mmHg 76%
09:00 +13°C° 0 mm 1 mps 729 mmHg 63%
10:00 +15°C° 0 mm 1 mps 729 mmHg 50%
11:00 +16°C° 0 mm 1 mps 729 mmHg 46%
12:00 +19°C° 0 mm 1 mps 728 mmHg 42%
13:00 +19°C° 0 mm 2 mps 728 mmHg 38%
14:00 +19°C° 0 mm 2 mps 728 mmHg 40%
15:00 +18°C° 0 mm 2 mps 728 mmHg 42%
16:00 +18°C° 0 mm 2 mps 728 mmHg 44%
17:00 +15°C° 0 mm 2 mps 728 mmHg 52%
18:00 +13°C° 0 mm 1 mps 729 mmHg 60%
19:00 +10°C° 0 mm 1 mps 729 mmHg 68%
20:00 +10°C° 0 mm 1 mps 729 mmHg 69%
21:00 +10°C° 0 mm 1 mps 728 mmHg 70%
22:00 +9°C° 0 mm 1 mps 728 mmHg 72%
23:00 +9°C° 0 mm 1 mps 728 mmHg 72%

Mañana, 16 Agosto, Domingo

Tiempo Temperatura Precipitaciones Viento Presión Humedad
00:00 +8°C° 0 mm 1 mps 728 mmHg 73%
01:00 +7°C° 0 mm 0 mps 728 mmHg 73%
02:00 +7°C° 0 mm 0 mps 728 mmHg 73%
03:00 +7°C° 0 mm 0 mps 728 mmHg 72%
04:00 +6°C° 0 mm 0 mps 727 mmHg 71%
05:00 +7°C° 0 mm 0 mps 728 mmHg 68%
06:00 +7°C° 0 mm 0 mps 728 mmHg 65%
07:00 +8°C° 0 mm 0 mps 728 mmHg 62%
08:00 +11°C° 0 mm 0 mps 728 mmHg 53%
09:00 +14°C° 0 mm 0 mps 728 mmHg 44%
10:00 +19°C° 0 mm 1 mps 729 mmHg 35%
11:00 +20°C° 0 mm 1 mps 729 mmHg 35%
12:00 +21°C° 0 mm 1 mps 728 mmHg 34%
13:00 +21°C° 0 mm 2 mps 728 mmHg 34%
14:00 +20°C° 0 mm 2 mps 728 mmHg 38%
15:00 +19°C° 0 mm 2 mps 728 mmHg 42%
16:00 +18°C° 0 mm 2 mps 728 mmHg 46%
17:00 +16°C° 0 mm 1 mps 728 mmHg 55%
18:00 +13°C° 0 mm 1 mps 728 mmHg 64%
19:00 +10°C° 0 mm 0 mps 728 mmHg 73%
20:00 +9°C° 0 mm 0 mps 728 mmHg 73%
21:00 +9°C° 0 mm 0 mps 728 mmHg 73%
22:00 +9°C° 0 mm 0 mps 728 mmHg 73%
23:00 +8°C° 0 mm 0 mps 728 mmHg 74%

Pasado mañana, 17 Agosto, Lunes

Tiempo Temperatura Precipitaciones Viento Presión Humedad
00:00 +8°C° 0 mm 0 mps 728 mmHg 75%
01:00 +8°C° 0 mm 0 mps 728 mmHg 76%
02:00 +7°C° 0 mm 0 mps 728 mmHg 75%
03:00 +7°C° 0 mm 0 mps 727 mmHg 75%
04:00 +7°C° 0 mm 0 mps 727 mmHg 74%
05:00 +7°C° 0 mm 0 mps 727 mmHg 71%
06:00 +8°C° 0 mm 0 mps 728 mmHg 68%
07:00 +9°C° 0 mm 0 mps 728 mmHg 65%
08:00 +11°C° 0 mm 0 mps 728 mmHg 57%
09:00 +15°C° 0 mm 1 mps 728 mmHg 48%
10:00 +19°C° 0 mm 1 mps 728 mmHg 40%
11:00 +20°C° 0 mm 1 mps 728 mmHg 41%
12:00 +19°C° 0 mm 2 mps 728 mmHg 41%
13:00 +20°C° 0 mm 2 mps 727 mmHg 42%
14:00 +19°C° 0 mm 2 mps 727 mmHg 48%
15:00 +18°C° 0 mm 2 mps 727 mmHg 54%
16:00 +17°C° 0 mm 2 mps 727 mmHg 60%
17:00 +15°C° 0 mm 2 mps 727 mmHg 70%
18:00 +12°C° 0 mm 1 mps 727 mmHg 81%
19:00 +10°C° 0 mm 1 mps 727 mmHg 91%
20:00 +8°C° 0 mm 0 mps 728 mmHg 92%
21:00 +8°C° 0 mm 0 mps 728 mmHg 94%
22:00 +7°C° 0 mm 0 mps 728 mmHg 95%
23:00 +7°C° 0 mm 0 mps 728 mmHg 95%

18 Agosto, Martes

Tiempo Temperatura Precipitaciones Viento Presión Humedad
00:00 +7°C° 0 mm 0 mps 728 mmHg 96%
01:00 +6°C° 0 mm 0 mps 728 mmHg 96%
02:00 +6°C° 0 mm 0 mps 728 mmHg 97%
03:00 +6°C° 0 mm 0 mps 728 mmHg 97%
04:00 +6°C° 0 mm 0 mps 728 mmHg 97%
05:00 +6°C° 0 mm 0 mps 728 mmHg 97%
06:00 +7°C° 0 mm 0 mps 729 mmHg 96%
07:00 +7°C° 0 mm 0 mps 729 mmHg 95%
08:00 +10°C° 0 mm 1 mps 729 mmHg 88%
09:00 +11°C° 0 mm 1 mps 729 mmHg 81%
10:00 +12°C° 0 mm 2 mps 729 mmHg 74%
11:00 +13°C° 0.1 mm 2 mps 729 mmHg 72%
12:00 +13°C° 0.1 mm 2 mps 729 mmHg 69%
13:00 +13°C° 0.1 mm 3 mps 729 mmHg 67%
14:00 +13°C° 0 mm 2 mps 729 mmHg 70%
15:00 +12°C° 0 mm 2 mps 729 mmHg 74%
16:00 +12°C° 0 mm 2 mps 730 mmHg 77%
17:00 +11°C° 0 mm 1 mps 730 mmHg 81%
18:00 +10°C° 0 mm 1 mps 730 mmHg 85%
19:00 +8°C° 0 mm 0 mps 731 mmHg 89%
20:00 +8°C° 0 mm 0 mps 731 mmHg 90%
21:00 +7°C° 0 mm 0 mps 731 mmHg 92%
22:00 +6°C° 0 mm 0 mps 731 mmHg 94%
23:00 +7°C° 0 mm 1 mps 731 mmHg 94%

19 Agosto, Miércoles

Tiempo Temperatura Precipitaciones Viento Presión Humedad
00:00 +7°C° 0 mm 1 mps 731 mmHg 94%
01:00 +6°C° 0 mm 1 mps 731 mmHg 95%
02:00 +6°C° 0 mm 1 mps 731 mmHg 94%
03:00 +6°C° 0 mm 1 mps 731 mmHg 94%
04:00 +6°C° 0 mm 1 mps 730 mmHg 94%
05:00 +6°C° 0 mm 1 mps 730 mmHg 93%
06:00 +7°C° 0 mm 1 mps 731 mmHg 92%
07:00 +7°C° 0 mm 1 mps 731 mmHg 90%
08:00 +10°C° 0 mm 1 mps 731 mmHg 78%
09:00 +12°C° 0 mm 1 mps 731 mmHg 66%
10:00 +14°C° 0 mm 1 mps 731 mmHg 53%
11:00 +15°C° 0 mm 1 mps 731 mmHg 50%
12:00 +16°C° 0 mm 1 mps 730 mmHg 48%
13:00 +17°C° 0 mm 2 mps 730 mmHg 45%
14:00 +17°C° 0 mm 2 mps 730 mmHg 49%
15:00 +16°C° 0 mm 2 mps 730 mmHg 53%
16:00 +16°C° 0 mm 2 mps 730 mmHg 58%
17:00 +13°C° 0 mm 1 mps 731 mmHg 68%
18:00 +11°C° 0 mm 1 mps 731 mmHg 78%
19:00 +8°C° 0 mm 0 mps 731 mmHg 89%
20:00 +7°C° 0 mm 0 mps 731 mmHg 89%
21:00 +7°C° 0 mm 0 mps 732 mmHg 89%
22:00 +7°C° 0 mm 0 mps 732 mmHg 90%
23:00 +7°C° 0 mm 0 mps 731 mmHg 89%

20 Agosto, Jueves

Tiempo Temperatura Precipitaciones Viento Presión Humedad
00:00 +6°C° 0 mm 0 mps 731 mmHg 88%
01:00 +6°C° 0 mm 0 mps 731 mmHg 87%
02:00 +6°C° 0 mm 0 mps 731 mmHg 85%
03:00 +7°C° 0 mm 1 mps 731 mmHg 84%
04:00 +7°C° 0 mm 1 mps 731 mmHg 82%
05:00 +8°C° 0 mm 1 mps 731 mmHg 78%
06:00 +8°C° 0 mm 1 mps 731 mmHg 74%
07:00 +9°C° 0 mm 1 mps 731 mmHg 69%
08:00 +12°C° 0 mm 1 mps 732 mmHg 57%
09:00 +15°C° 0 mm 1 mps 732 mmHg 45%
10:00 +19°C° 0 mm 1 mps 732 mmHg 32%
11:00 +20°C° 0 mm 1 mps 731 mmHg 30%
12:00 +21°C° 0 mm 1 mps 731 mmHg 27%
13:00 +22°C° 0 mm 1 mps 731 mmHg 25%
14:00 +22°C° 0 mm 1 mps 731 mmHg 28%
15:00 +21°C° 0 mm 1 mps 731 mmHg 32%
16:00 +21°C° 0 mm 1 mps 731 mmHg 36%
17:00 +18°C° 0 mm 1 mps 731 mmHg 43%
18:00 +14°C° 0 mm 1 mps 731 mmHg 50%
19:00 +11°C° 0 mm 1 mps 731 mmHg 57%
20:00 +11°C° 0 mm 1 mps 731 mmHg 53%
21:00 +11°C° 0 mm 1 mps 730 mmHg 49%
22:00 +10°C° 0 mm 1 mps 730 mmHg 45%
23:00 +10°C° 0 mm 1 mps 730 mmHg 42%
Mostrar más